Location: Omaha
(41.2590°N, 95.9380°W)
Time: 17:28:50
(UTC-05:00)

Tiangong 1 - Pass Details

Date: 10 October 2017
Orbit: 293 x 320 km, 42.8° (Epoch: 17 October)

Event Time Altitude Azimuth Distance (km) Brightness Sun altitude
Rises 19:51:31 0° 275° (W) 2,041 6.9 -12.3°
Reaches altitude 10° 19:53:32 10° 279° (W) 1,206 5.0 -12.7°
Maximum altitude 19:56:12 58° 0° (N) 366 0.9 -13.2°
Enters shadow 19:57:15 30° 68° (ENE) 582 1.5 -13.4°
